Observations for Trim Market St
| Time | AQI | Temp °C | Hum % | Pres Pa | CO μg/m³ | H₂S μg/m³ | NO μg/m³ | NO₂ μg/m³ | O₃ μg/m³ | SO₂ μg/m³ | PM1 μg/m³ | PM2.5 μg/m³ | PM10 μg/m³ |
|---|---|---|---|---|---|---|---|---|---|---|---|---|---|
| Wednesday 15 July 2026 | |||||||||||||
| 21:15 | 1 | 22.7 | 57 | 57,915 | 0 | 3.42 | 0 | 19.14 | 22.19 | 0 | 6.41 | 8.7 | 12.45 |
| 21:14 | 1 | 22.7 | 57 | 57,915 | 0 | 0.9 | 0 | 12.36 | 30.85 | 0 | 7.84 | 11.23 | 16.68 |
| 21:13 | 1 | 22.7 | 57 | 57,913 | 0 | 0 | 0 | 8.58 | 31.98 | 0 | 7.13 | 11.75 | 16.7 |
| 21:12 | 1 | 22.8 | 57 | 57,913 | 0 | 0 | 0 | 8.17 | 32.45 | 0 | 7.13 | 9.24 | 12.47 |
| 21:10 | 1 | 22.8 | 56 | 57,911 | 0 | 0 | 0 | 8.79 | 31.35 | 0 | 7.13 | 9.75 | 13.18 |
| 21:09 | 1 | 22.9 | 56 | 57,909 | 0 | 0 | 0 | 10.67 | 31.22 | 0 | 6.41 | 8.75 | 12.48 |
| 21:08 | 1 | 22.9 | 56 | 57,909 | 0 | 0 | 0 | 7.78 | 32.74 | 0 | 7.13 | 9.77 | 13.9 |
| 21:07 | 1 | 22.9 | 56 | 57,907 | 0 | 0 | 0 | 6.79 | 36.01 | 0 | 7.84 | 9.77 | 15.32 |
| 21:04 | 1 | 23 | 56 | 57,905 | 0 | 0 | 0 | 7.58 | 32.42 | 0 | 7.13 | 10.28 | 14.62 |
| 21:03 | 1 | 23 | 56 | 57,903 | 0 | 0 | 0 | 7.69 | 33.9 | 0 | 7.84 | 10.8 | 14.63 |
| 21:02 | 1 | 23.1 | 56 | 57,899 | 0 | 0 | 0 | 8.68 | 34.86 | 0 | 7.84 | 11.82 | 16.77 |
| 21:01 | 1 | 23.1 | 56 | 57,895 | 0 | 0 | 0 | 8.29 | 31.87 | 0 | 6.41 | 9.29 | 13.93 |
| 21:00 | 1 | 23.1 | 56 | 57,889 | 0 | 0 | 0 | 7.2 | 34.96 | 0 | 7.13 | 10.31 | 16.07 |
| 20:59 | 1 | 23.1 | 56 | 57,885 | 0 | 0 | 0 | 8.01 | 31.87 | 0 | 6.41 | 8.8 | 11.8 |
| 20:58 | 1 | 23.2 | 56 | 57,876 | 0 | 0 | 0 | 7.78 | 32.92 | 0 | 6.41 | 9.3 | 13.94 |
| 20:57 | 1 | 23.2 | 56 | 57,863 | 0 | 0 | 0 | 8.79 | 33.95 | 0 | 7.84 | 10.83 | 15.37 |
| 20:56 | 1 | 23.2 | 55 | 57,848 | 0 | 0 | 0 | 8.41 | 34.18 | 0 | 4.99 | 7.8 | 11.81 |
| 20:55 | 1 | 23.3 | 55 | 57,826 | 0 | 0 | 0 | 8.39 | 33.79 | 0 | 6.41 | 9.83 | 13.24 |
| 20:54 | 1 | 23.3 | 55 | 57,797 | 0 | 0 | 0 | 8.8 | 34.88 | 0 | 7.13 | 10.34 | 13.96 |
| 20:53 | 1 | 23.3 | 55 | 57,764 | 0 | 0 | 0 | 8.51 | 35.4 | 0 | 5.7 | 8.83 | 12.54 |